Regional Weather Roundup
Issued by NWS

Home | Current Version | Previous Version | Graphics & Text | Print | Product List | Glossary On
Versions: 1 2 3 4 5 6 7 8 9 10 11 12 13 14 15 16 17 18 19 20 21 22 23 24 25 26 27 28 29 30 31 32 33 34 35 36 37 38 39 40 41 42 43 44 45 46 47 48 49 50
000
ASUS43 KFSD 030102
RWRSD

WEATHER ROUNDUP FOR SOUTH DAKOTA
NATIONAL WEATHER SERVICE SIOUX FALLS SD
800 PM CDT SUN AUG 02 2015

NOTE: "FAIR" INDICATES FEW OR NO CLOUDS BELOW 12,000 FEET WITH NO
SIGNIFICANT WEATHER AND/OR OBSTRUCTIONS TO VISIBILITY.


SDZ001>005-009-010-012>017-030200-
NORTHWEST AND NORTH CENTRAL SOUTH DAKOTA

CITY           SKY/WX    TMP DP  RH WIND       PRES   REMARKS
BUFFALO          N/A     81  48  31 E10       29.93S
FAITH            N/A     82  47  29 NE10      29.96S
MOBRIDGE       SUNNY     80  55  42 N9        29.90S
$$

SDZ012>016-024>037-041>051-057-063-072>074-030200-
SOUTHWEST AND SOUTH CENTRAL SOUTH DAKOTA

CITY           SKY/WX    TMP DP  RH WIND       PRES   REMARKS
RAPID CTY ARPT SUNNY     80  57  45 NE8       29.97S
PIERRE         SUNNY     82  52  35 N9        29.89S
CUSTER         SUNNY     73  50  44 E8        30.12S
PHILIP         SUNNY     83  55  38 SE5       29.92R
PINE RIDGE     SUNNY     82  56  40 E13       29.96S
WINNER         FAIR      83  59  44 E6        29.91S
$$

SDZ004>011-016>023-039-040-030200-
NORTHEAST SOUTH DAKOTA

CITY           SKY/WX    TMP DP  RH WIND       PRES   REMARKS
ABERDEEN       CLEAR     78  56  46 N6        29.88S
WATERTOWN      CLEAR     73  56  54 N12       29.88S
BROOKINGS      CLEAR     73  57  56 NW8       29.90R
SISSETON         N/A     73  56  54 N9        29.85S
$$

SDZ017-020-022-023-036>040-048>070-030200-
SOUTHEAST SOUTH DAKOTA

CITY           SKY/WX    TMP DP  RH WIND       PRES   REMARKS
SIOUX FALLS    CLEAR     77  61  57 N8        29.87R
HURON          CLEAR     77  59  53 N8        29.87R
MITCHELL       CLEAR     78  63  59 NE6       29.88R
YANKTON        CLEAR     81  64  57 N6        29.85R
$$

ABBREVIATIONS USED IN REMARKS
   TC - TEMPERATURE IN CELSIUS
  WCI - WIND CHILL INDEX
   HX - HEAT INDEX
  VSB - VISIBILITY



USA.gov is the U.S. government's official web portal to all federal, state and local government web resources and services.